Home > Weather > Willemstad > Past weeks

Flag for Curaçao Weather for the Past 2 Weeks in Willemstad, Curaçao

Now
79 °F

Passing clouds.


Feels Like: 82 °F
Forecast: 78 / 86 °F
Wind: 18 mph from Southeast

Location: Hato Airport - Curacao

Current Time: Feb 8, 2016 at 1:09:18 AM

Latest Report: Feb 8, 2016 at 12:00 AM


Visibility: N/A

Pressure: 29.95 "Hg

Humidity: 84%

Dew point: 73 °F

Location of WillemstadLocation

Historic Weather in Willemstad — Graph

°F

Willemstad Temperature Yesterday

Maximum temperature yesterday: 88 °F (at 2:00 PM)
Minimum temperature yesterday: 79 °F (at 12:00 AM)
Average temperature yesterday: 81 °F

High & Low Weather Summary for the Past Weeks

 TemperatureHumidityPressure
High88 °F (Jan 26, 12:00 PM)89% (Jan 23, 11:00 PM)30.07 "Hg (Jan 23, 11:00 PM)
Low73 °F (Feb 5, 7:00 AM)58% (Jan 27, 4:00 PM)29.86 "Hg (Jan 24, 4:00 AM)
Average81 °F76%29.95 "Hg
* Reported Jan 23 11:00 PM — Feb 7 11:00 PM, Willemstad, Weather by CustomWeather, © 2016

Note: Actual official high and low records may vary slightly from our data, if they occured in-between our weather recording intervals... More about our weather records

Advertising

Willemstad Weather History for the Previous 24 Hours

 ConditionsComfort  
Time TempWeatherWind HumidityBarometerVisibility
11:00 PM
Sun, Feb 7
79 °FPassing clouds.16 mph84%29.95 "HgN/A
10:00 PM79 °FPassing clouds.18 mph84%29.95 "HgN/A
9:00 PM79 °FPassing clouds.18 mph84%29.92 "HgN/A
8:00 PM79 °FPassing clouds.18 mph84%29.89 "HgN/A
7:00 PM81 °FPassing clouds.17 mph79%29.89 "HgN/A
6:00 PM81 °FPassing clouds.16 mph74%29.86 "HgN/A
5:00 PM82 °FPassing clouds.18 mph74%29.86 "HgN/A
4:00 PM84 °FPassing clouds.20 mph70%29.86 "HgN/A
3:00 PM84 °FPassing clouds.21 mph70%29.86 "HgN/A
2:00 PM88 °FPassing clouds.22 mph59%29.89 "HgN/A
12:00 PM84 °FPassing clouds.24 mph70%29.95 "Hg6 mi
11:00 AM82 °FScattered clouds.24 mph74%29.95 "Hg6 mi
10:00 AM82 °FPassing clouds.22 mph79%29.95 "Hg6 mi
9:00 AM82 °FPassing clouds.22 mph79%29.95 "Hg5 mi
8:00 AM81 °FPassing clouds.17 mph79%29.95 "Hg5 mi
7:00 AM79 °FPassing clouds.18 mph84%29.92 "HgN/A
6:00 AM79 °FPassing clouds.15 mph84%29.89 "HgN/A
5:00 AM79 °FPassing clouds.17 mph84%29.89 "HgN/A
4:00 AM79 °FPassing clouds.14 mph84%29.89 "HgN/A
3:00 AM79 °FPassing clouds.14 mph84%29.92 "HgN/A
2:00 AM79 °FPassing clouds.15 mph84%29.92 "HgN/A
1:00 AM79 °FPassing clouds.15 mph84%29.95 "HgN/A
Weather by CustomWeather, © 2016

See weather overviewHow to use our weather pages